Regional Weather Roundup
Issued by NWS

Home | Current Version | Previous Version | Text Only | Print | Product List | Glossary Off
Versions: 1 2 3 4 5 6 7 8 9 10 11 12 13 14 15 16 17 18 19 20 21 22 23 24 25 26 27 28

000
ASUS42 KTBW 311210
RWRFL
FLORIDA REGIONAL WEATHER ROUNDUP
NATIONAL WEATHER SERVICE TAMPA BAY RUSKIN FL
800 AM EDT FRI OCT 31 2014

NOTE: "FAIR" INDICATES FEW OR NO CLOUDS BELOW 12,000 FEET WITH NO
SIGNIFICANT WEATHER AND/OR OBSTRUCTIONS TO VISIBILITY.


FLZ001>010-012>015-112-114-115-311300-
PANHANDLE FLORIDA

CITY           SKY/WX    TMP DP  RH WIND       PRES   REMARKS
PENSACOLA      CLEAR     48  41  76 N7        30.00R WCI  45
PENSACOLA NAS  PTCLDY    47  43  86 NW6       30.00R WCI  44
MILTON NAS     CLEAR     43  40  89 NW5       30.00S WCI  40
CRESTVIEW      CLEAR     40  39  97 CALM      30.00R
DUKE FIELD     FAIR      44  41  89 NW2       29.99R
VALPARAISO     CLEAR     48  41  77 N5        29.99R
MARY ESTHER    CLEAR     45  38  77 N6        29.98S WCI  42
TRI COUNTY     FAIR      44  42  93 CALM      29.99R
PANAMA CITY    FAIR      45  40  82 NW3       29.97R
TYNDALL AFB    CLEAR     52  44  73 N3        29.97R
APALACHICOLA   CLEAR     49  43  80 NW5       29.96R

STATION/POSITION SKY/WX   TEMP    WIND        PRES    WAVE   SWELL
                          AIR SEA DIR/SP/G            HT/PER HT/PER
                          (F)     (DEG/KT/KT) (MB)    (FT/S) (FT/S)
30.1N   87.6W              65 77  360/ 12/ 14 1015.5R   1/ 3
29.2N   88.2W              69 77  360/ 16/ 19 1016.5    3/ 4
28.8N   86.0W              69 78  360/ 16/ 21 1014.4R   3/ 5
PANAMA CITY BEAC           52 74  350/  7/ 10 1014.8R
CAPE SAN BLAS    NOT AVBL
TOWER C                    63      10/ 17/ 18 1013.8R
28.5N   84.5W              69 79  340/ 16/ 19 1013.0R   3/ 5

$$
FLZ011-016>038-118-127-128-134-139-239-311300-
NORTH FLORIDA

CITY           SKY/WX    TMP DP  RH WIND       PRES   REMARKS
MARIANNA       CLEAR     44  43  96 CALM      29.97R
TALLAHASSEE    CLEAR     45  39  79 NW3       29.95R
PERRY          CLEAR     43  43 100 CALM      29.93R
CROSS CITY       N/A     50  46  86 N5        29.91R
LAKE CITY      FAIR      50  46  87 CALM      29.90R
GAINESVILLE    CLOUDY    55  53  93 NW7       29.89R
MAYPORT NAS    MOCLDY    63  62  97 NW3       29.87R FOG
JACKSONVILLE   PTCLDY    57  56  96 N6        29.87R
JAX NAS        PTCLDY    63  57  81 NW7       29.88R
JAX CRAIG      CLEAR     62  60  93 NW7       29.87R
JAX CECIL      PTCLDY    54  54 100 CALM      29.88R
ST AUGUSTINE   PTCLDY    60  59  96 W6        29.87R

STATION/POSITION SKY/WX   TEMP    WIND        PRES    WAVE   SWELL
                          AIR SEA DIR/SP/G            HT/PER HT/PER
                          (F)     (DEG/KT/KT) (MB)    (FT/S) (FT/S)
SHELL POINT                51     350/  7/ 10   N/A
KEATON BEACH               53      10/  7/ 10 1013.3R
CEDAR KEY                  60     360/  6/  9 1012.6R
FERNANDINA       NOT AVBL
30.7N   81.3W                 76                N/A     3/ 8
MAYPORT                    63 76  320/  7/ 10   N/A
31.4N   80.9W              67 74   10/ 14/ 16 1011.4R   3/ 6   2/10
ST AUGUSTINE               60     300/  8/  9 1011.6R

$$
FLZ040-043>046-052-053-057-058-063-144-311300-
INTERIOR CENTRAL FLORIDA

CITY           SKY/WX    TMP DP  RH WIND       PRES   REMARKS
OCALA          CLEAR     57  50  77 NW5       29.89R
THE VILLAGES     N/A     63  55  77 W6        29.79R
LEESBURG       CLOUDY    65  56  72 NW5       29.88R
SANFORD        MOCLDY    66  61  84 NW3       29.86R
ORLANDO EXEC   MOCLDY    68  61  78 NW5       29.87R
ORLANDO INTL   MOCLDY    68  63  84 NW9       29.87R
KISSIMMEE      MOCLDY    68  64  88 N6        29.87R
WINTER HAVEN   MOCLDY    65  61  87 NW7       29.89R
LAKELAND       PTCLDY    64  61  88 N5        29.88R
BARTOW         PTCLDY    64  64 100 NW6       29.89R
OKEECHOBEE       N/A     64  64 100 MISG        N/A

$$
FLZ041-047-054-059-064-141-147-311300-
EAST CENTRAL FLORIDA

CITY           SKY/WX    TMP DP  RH WIND       PRES   REMARKS
ORMOND BEACH   MOCLDY    63  59  88 NW3       29.86R
DAYTONA BEACH  CLOUDY    64  62  93 SW3       29.86R
DELAND         MOSUNNY   63  57  82 CALM      29.87S
NEW SMYRNA BEA MOCLDY    64  64 100 NW6       29.86R
JFK SPACE CTR  CLOUDY    68  66  92 NW3       29.85R
TITUSVILLE     MOCLDY    64  64 100 W7        29.85R
CAPE CANAVERAL PTCLDY    68  66  92 NW5       29.84R
PATRICK AFB    PTCLDY    71  68  92 NW8       29.85R
MELBOURNE      MOCLDY    70  68  93 NW5       29.84R
VERO BEACH     MOCLDY    67  65  93 W7        29.84R FOG
FT PIERCE      MOCLDY    68  66  93 W6        29.84R FOG
STUART         PTCLDY    68  66  94 W5        29.83S

STATION/POSITION SKY/WX   TEMP    WIND        PRES    WAVE   SWELL
                          AIR SEA DIR/SP/G            HT/PER HT/PER
                          (F)     (DEG/KT/KT) (MB)    (FT/S) (FT/S)
28.5N   80.2W              74 79  290/  6/  8 1010.2R
28.9N   78.5W              72 81  120/  6/  8 1010.2R   4/ 8   3/ 8
TRIDENT PIER               70 78  310/  4/  6 1010.0R
28.4N   80.5W                 78                N/A     1/ 9
27.6N   80.2W                 79                N/A     2/ 9

$$
FLZ050-056-061-142-242-148-248-149-249-151-251-155-255-
160-260-311300-
WEST CENTRAL FLORIDA

CITY           SKY/WX    TMP DP  RH WIND       PRES   REMARKS
CRYSTAL RIVER  FAIR      57  50  77 N3        29.90R
INVERNESS      CLOUDY    61  52  72 N3        29.90R
BROOKSVILLE    CLEAR     61  54  77 NW6       29.90R
ZEPHYRHILLS    FAIR      59  59 100 CALM      29.89S
CLEARWATER     PTCLDY    67  57  70 N7        29.89R
TAMPA INTL     PTCLDY    65  54  67 N5        29.89R
TAMPA EXEC     PTCLDY    64  61  88 CALM      29.89R
PLANT CITY     CLEAR     66 N/A N/A N3        29.90R
MACDILL AFB    CLEAR     64  59  83 N5        29.89R
ST PETERSBURG  PTCLDY    69  56  62 N8        29.87R
SARASOTA       CLOUDY    70  65  84 N8        29.86R
VENICE           N/A     72  68  88 N7        29.88R

STATION/POSITION SKY/WX   TEMP    WIND        PRES    WAVE   SWELL
                          AIR SEA DIR/SP/G            HT/PER HT/PER
                          (F)     (DEG/KT/KT) (MB)    (FT/S) (FT/S)
CEDAR KEY                  60     360/  6/  9 1012.6R
28.5N   84.5W              69 79  340/ 16/ 19 1013.0R   3/ 5
27.3N   84.3W                 80                N/A     4/ 5
CLEARWATER BEACH           69 76   20/  5/  7 1011.6R
MIDDLE TAMPA BAY           70      10/ 15/ 17 1012.0R
VENICE                     71 78   10/  7/  9 1011.3R

$$
FLZ066-069-070-075>078-162-262-165-265-311300-
SOUTHWEST FLORIDA AND KEYS

CITY           SKY/WX    TMP DP  RH WIND       PRES   REMARKS
PUNTA GORDA    MOCLDY    69  67  93 N5        29.88R
FT MYERS       PTCLDY    70  68  93 CALM      29.85R
SOUTHWEST INTL MOCLDY    68  68 100 N3        29.86R
NAPLES         MOCLDY    72  69  90 NE6       29.85R
MARCO ISLAND   SUNNY     70  66  88 SE5       29.85S
MARATHON       CLEAR     73  69  87 W3        29.87R
KEY WEST NAS   PTCLDY    74  68  81 CALM      29.87S
KEY WEST INTL  PTCLDY    75  71  87 VRB6      29.88R

STATION/POSITION SKY/WX   TEMP    WIND        PRES    WAVE   SWELL
                          AIR SEA DIR/SP/G            HT/PER HT/PER
                          (F)     (DEG/KT/KT) (MB)    (FT/S) (FT/S)
VENICE                     71 78   10/  7/  9 1011.3R
NAPLES                     78 82  280/  8/ 10 1011.3R
26.0N   85.6W              76 80  340/ 14/ 17 1013.7R   4/ 6   2/12
DRY TORTUGAS               78     270/ 10/ 12 1011.1R
NW FL BAY                  78     280/  6/  7 1011.1R
SAND KEY                   78     260/  9/ 11 1011.6R
SOMBRERO KEY               78     270/  9/ 10 1012.1R
LONG KEY                   78 79  280/  9/ 11 1011.9R
MOLASSES REEF              77 81  290/ 11/ 12 1011.4R

$$
FLZ067-068-071>074-168-172>174-311300-
SOUTHEAST FLORIDA

CITY           SKY/WX    TMP DP  RH WIND       PRES   REMARKS
W PALM BEACH   PTCLDY    69  68  96 SW5       29.83S
FT LAUDER-EXEC CLEAR     70  66  87 W6        29.85R
FT LAUDERDALE  PTCLDY    73  69  87 W5        29.85R
POMPANO BEACH  CLEAR     71  67  87 SW6       29.85R
PEMBROKE PINES CLEAR     71  68  90 CALM      29.87R
OPA LOCKA      CLEAR     71  68  90 SW5       29.87R
MIAMI          PTCLDY    73  70  90 W5        29.87R
WEST KENDALL   CLEAR     71  67  87 CALM      29.87R
HOMESTEAD      CLEAR     69  67  93 W3        29.87R

STATION/POSITION SKY/WX   TEMP    WIND        PRES    WAVE   SWELL
                          AIR SEA DIR/SP/G            HT/PER HT/PER
                          (F)     (DEG/KT/KT) (MB)    (FT/S) (FT/S)
PORT EVERGLADES            73     260/  6/  9 1010.8
VIRGINIA KEY               74 79  290/  5/  7 1011.5R
LAKE WORTH                 71 81  250/  4/  7 1010.2S
FOWEY ROCKS                75 78  280/ 12/ 13 1011.5R
SETTLEMENT POINT           79     240/  7/  8 1011.0R

$$




USA.gov is the U.S. government's official web portal to all federal, state and local government web resources and services.